This is the latest recevied weather packets stored in our database for station/object W8UFO-13. If no packets are shown the sender has not sent any weather packets the latest 10 day(s).
| Time | Temp. | Humidity | Pressure | Rain* | Wind** | Luminosity | Snow |
|---|---|---|---|---|---|---|---|
| 1777932557 | 25° C | 45% | 1013.9 hPa | 0 mm | - | - | - |
| 1777932257 | 25.56° C | 46% | 1014 hPa | 0 mm | - | - | - |
| 1777931957 | 25.56° C | 44% | 1014.1 hPa | 0 mm | - | - | - |
| 1777931657 | 26.11° C | 44% | 1013.9 hPa | 0 mm | - | - | - |
| 1777931357 | 25.56° C | 45% | 1014 hPa | 0 mm | - | - | - |
| 1777931057 | 25.56° C | 44% | 1014.1 hPa | 0 mm | - | - | - |
| 1777930757 | 26.11° C | 44% | 1013.9 hPa | 0 mm | - | - | - |
| 1777930457 | 26.11° C | 46% | 1014 hPa | 0 mm | - | - | - |
| 1777930157 | 26.11° C | 44% | 1014 hPa | 0 mm | - | - | - |
| 1777929857 | 26.11° C | 44% | 1014.1 hPa | 0 mm | - | - | - |
| 1777929557 | 26.11° C | 48% | 1014.1 hPa | 0 mm | - | - | - |
| 1777929257 | 26.11° C | 46% | 1014.2 hPa | 0 mm | - | - | - |
| 1777928957 | 26.11° C | 47% | 1014.3 hPa | 0 mm | - | - | - |
| 1777928657 | 26.11° C | 46% | 1014.5 hPa | 0 mm | - | - | - |
| 1777928357 | 26.11° C | 47% | 1014.4 hPa | 0 mm | - | - | - |
| 1777928057 | 26.11° C | 50% | 1014.4 hPa | 0 mm | - | - | - |
| 1777927757 | 26.11° C | 49% | 1014.5 hPa | 0 mm | - | - | - |
| 1777927457 | 26.11° C | 48% | 1014.6 hPa | 0 mm | - | - | - |
| 1777927158 | 26.11° C | 50% | 1014.5 hPa | 0 mm | - | - | - |
| 1777926857 | 26.11° C | 49% | 1014.7 hPa | 0 mm | - | - | - |
| 1777926557 | 26.11° C | 48% | 1014.6 hPa | 0 mm | - | - | - |
| 1777926257 | 26.11° C | 50% | 1014.6 hPa | 0 mm | - | - | - |
| 1777925957 | 26.11° C | 49% | 1014.8 hPa | 0 mm | - | - | - |
| 1777925657 | 25.56° C | 48% | 1014.8 hPa | 0 mm | - | - | - |
| 1777925357 | 25.56° C | 49% | 1014.9 hPa | 0 mm | - | - | - |
* Rain latest hour (hover to see other rain measurements)
** Current wind speed in m/s (hover to see current wind gust speed)